Location: Unspecified
(42.3650°N, 71.1030°W)
Time: 15:44:47
(UTC+00:00)

Tiros 1 - Pass Details

Date: 03 July 2024
Orbit: 624 x 656 km, 48.4° (Epoch: 13 July)

Event Time Altitude Azimuth Distance (km) Brightness Sun altitude
Rises 06:13:53 0° 296° (WNW) 2,906 10.6 -21.8°
Reaches altitude 10° 06:16:13 10° 293° (WNW) 1,999 9.7 -21.7°
Maximum altitude 06:20:45 65° 213° (SSW) 691 6.9 -21.4°
Enters shadow 06:21:48 49° 156° (SSE) 814 7.3 -21.3°
Drops below altitude 10° 06:25:19 10° 131° (SE) 2,005 - -21.0°
Sets 06:27:39 0° 129° (SE) 2,915 - -20.8°
